Voltar ao catálogo

COSMOS 766

AtivoNavegaçãoLEO
NORAD 8290·PAYLOAD·🇷🇺 Russia

Lançado Sep 17, 1975 de Plesetsk Cosmodrome

Loading…

Próximas Passagens (próximas 24 horas)

TLE

AtualizadoSource: Space-Track

Época: Sep 14, 2026, 19:35 UTC

1 08290U 75086F   26257.81654650 -.00000017  00000-0 -78796-5 0  9994
2 08290  74.0122  23.0165 0041870  77.6461  75.5995 12.53299937332991

Acompanhe COSMOS 766 em tempo real com AllMySat

Download on the App Store